• In Latvia
  • List of Countries
  • For 7 days
  • Water Temperature
  • Satellite Maps
  • Weather Map
  • Weather Widgets
  • user-avatar
    Login

    Hourly Weather Fier

    Today, 21 November, Tuesday

    Time Temperature Precipitation Wind Pressure Humidity
    00:00 +6°C° 0 mm 2 mps 764 mmHg 62%
    01:00 +6°C° 0 mm 2 mps 765 mmHg 61%
    02:00 +6°C° 0 mm 2 mps 765 mmHg 59%
    03:00 +6°C° 0 mm 2 mps 765 mmHg 57%
    04:00 +5°C° 0 mm 2 mps 765 mmHg 55%
    05:00 +6°C° 0 mm 2 mps 765 mmHg 54%
    06:00 +6°C° 0 mm 2 mps 765 mmHg 52%
    07:00 +6°C° 0 mm 2 mps 765 mmHg 51%
    08:00 +8°C° 0 mm 2 mps 765 mmHg 46%
    09:00 +9°C° 0 mm 2 mps 765 mmHg 40%
    10:00 +12°C° 0 mm 2 mps 765 mmHg 35%
    11:00 +13°C° 0 mm 2 mps 765 mmHg 35%
    12:00 +13°C° 0 mm 1 mps 765 mmHg 35%
    13:00 +14°C° 0 mm 1 mps 765 mmHg 35%
    14:00 +13°C° 0 mm 1 mps 765 mmHg 40%
    15:00 +12°C° 0 mm 1 mps 765 mmHg 46%
    16:00 +11°C° 0 mm 1 mps 765 mmHg 51%
    17:00 +10°C° 0 mm 1 mps 765 mmHg 52%
    18:00 +10°C° 0 mm 1 mps 765 mmHg 52%
    19:00 +8°C° 0 mm 2 mps 765 mmHg 52%
    20:00 +8°C° 0 mm 2 mps 765 mmHg 52%
    21:00 +8°C° 0 mm 2 mps 765 mmHg 51%
    22:00 +8°C° 0 mm 2 mps 766 mmHg 51%
    23:00 +8°C° 0 mm 2 mps 766 mmHg 50%

    Tomorrow, 22 November, Wednesday

    Time Temperature Precipitation Wind Pressure Humidity
    00:00 +8°C° 0 mm 2 mps 766 mmHg 50%
    01:00 +7°C° 0 mm 2 mps 766 mmHg 50%
    02:00 +7°C° 0 mm 2 mps 765 mmHg 50%
    03:00 +7°C° 0 mm 2 mps 765 mmHg 50%
    04:00 +7°C° 0 mm 2 mps 765 mmHg 51%
    05:00 +8°C° 0 mm 2 mps 765 mmHg 52%
    06:00 +8°C° 0 mm 2 mps 765 mmHg 53%
    07:00 +8°C° 0 mm 2 mps 765 mmHg 54%
    08:00 +10°C° 0 mm 2 mps 765 mmHg 52%
    09:00 +13°C° 0 mm 1 mps 766 mmHg 49%
    10:00 +15°C° 0 mm 1 mps 766 mmHg 47%
    11:00 +15°C° 0 mm 1 mps 765 mmHg 47%
    12:00 +16°C° 0 mm 1 mps 765 mmHg 47%
    13:00 +18°C° 0 mm 1 mps 765 mmHg 47%
    14:00 +16°C° 0 mm 1 mps 765 mmHg 53%
    15:00 +14°C° 0 mm 1 mps 764 mmHg 59%
    16:00 +13°C° 0 mm 1 mps 764 mmHg 65%
    17:00 +13°C° 0 mm 1 mps 765 mmHg 67%
    18:00 +12°C° 0 mm 1 mps 765 mmHg 69%
    19:00 +11°C° 0 mm 1 mps 765 mmHg 71%
    20:00 +11°C° 0 mm 1 mps 765 mmHg 70%
    21:00 +11°C° 0 mm 1 mps 765 mmHg 69%
    22:00 +11°C° 0 mm 1 mps 765 mmHg 68%
    23:00 +11°C° 0 mm 1 mps 765 mmHg 67%

    Day after tomorrow, 23 November, Thursday

    Time Temperature Precipitation Wind Pressure Humidity
    00:00 +11°C° 0 mm 1 mps 765 mmHg 66%
    01:00 +10°C° 0 mm 1 mps 765 mmHg 64%
    02:00 +10°C° 0 mm 1 mps 765 mmHg 63%
    03:00 +10°C° 0 mm 1 mps 765 mmHg 62%
    04:00 +10°C° 0 mm 1 mps 765 mmHg 61%
    05:00 +10°C° 0 mm 1 mps 765 mmHg 61%
    06:00 +10°C° 0 mm 1 mps 765 mmHg 60%
    07:00 +9°C° 0 mm 2 mps 765 mmHg 59%
    08:00 +12°C° 0 mm 1 mps 765 mmHg 54%
    09:00 +15°C° 0 mm 1 mps 765 mmHg 49%
    10:00 +18°C° 0 mm 1 mps 766 mmHg 44%
    11:00 +18°C° 0 mm 1 mps 765 mmHg 44%
    12:00 +19°C° 0 mm 1 mps 765 mmHg 43%
    13:00 +19°C° 0 mm 1 mps 765 mmHg 43%
    14:00 +18°C° 0 mm 1 mps 765 mmHg 49%
    15:00 +16°C° 0 mm 2 mps 765 mmHg 55%
    16:00 +15°C° 0 mm 2 mps 765 mmHg 61%
    17:00 +14°C° 0 mm 2 mps 765 mmHg 63%
    18:00 +13°C° 0 mm 2 mps 766 mmHg 65%
    19:00 +12°C° 0 mm 1 mps 766 mmHg 66%
    20:00 +12°C° 0 mm 1 mps 766 mmHg 65%
    21:00 +12°C° 0 mm 1 mps 766 mmHg 63%
    22:00 +12°C° 0 mm 1 mps 767 mmHg 62%
    23:00 +12°C° 0 mm 1 mps 766 mmHg 61%

    24 November, Friday

    Time Temperature Precipitation Wind Pressure Humidity
    00:00 +11°C° 0 mm 1 mps 766 mmHg 60%
    01:00 +11°C° 0 mm 1 mps 766 mmHg 59%
    02:00 +11°C° 0 mm 1 mps 766 mmHg 59%
    03:00 +11°C° 0 mm 1 mps 766 mmHg 59%
    04:00 +11°C° 0 mm 1 mps 766 mmHg 59%
    05:00 +11°C° 0 mm 1 mps 766 mmHg 59%
    06:00 +11°C° 0 mm 1 mps 766 mmHg 59%
    07:00 +10°C° 0 mm 2 mps 767 mmHg 60%
    08:00 +13°C° 0 mm 1 mps 767 mmHg 55%
    09:00 +15°C° 0 mm 1 mps 767 mmHg 51%
    10:00 +18°C° 0 mm 1 mps 767 mmHg 47%
    11:00 +17°C° 0 mm 2 mps 766 mmHg 47%
    12:00 +18°C° 0 mm 2 mps 766 mmHg 47%
    13:00 +18°C° 0 mm 2 mps 766 mmHg 47%
    14:00 +17°C° 0 mm 2 mps 766 mmHg 55%
    15:00 +16°C° 0 mm 3 mps 766 mmHg 63%
    16:00 +14°C° 0 mm 3 mps 766 mmHg 71%
    17:00 +13°C° 0 mm 3 mps 766 mmHg 75%
    18:00 +13°C° 0 mm 2 mps 766 mmHg 78%
    19:00 +12°C° 0 mm 2 mps 767 mmHg 81%
    20:00 +12°C° 0 mm 2 mps 767 mmHg 80%
    21:00 +12°C° 0 mm 2 mps 767 mmHg 78%
    22:00 +12°C° 0 mm 2 mps 768 mmHg 76%
    23:00 +12°C° 0 mm 2 mps 768 mmHg 74%

    25 November, Saturday

    Time Temperature Precipitation Wind Pressure Humidity
    00:00 +10°C° 0 mm 2 mps 767 mmHg 72%
    01:00 +10°C° 0 mm 2 mps 767 mmHg 70%
    02:00 +10°C° 0 mm 2 mps 767 mmHg 69%
    03:00 +10°C° 0 mm 2 mps 767 mmHg 68%
    04:00 +10°C° 0 mm 2 mps 767 mmHg 67%
    05:00 +10°C° 0 mm 2 mps 767 mmHg 66%
    06:00 +10°C° 0 mm 2 mps 768 mmHg 66%
    07:00 +10°C° 0 mm 2 mps 768 mmHg 66%
    08:00 +13°C° 0 mm 1 mps 768 mmHg 60%
    09:00 +15°C° 0 mm 1 mps 768 mmHg 55%
    10:00 +18°C° 0 mm 1 mps 768 mmHg 49%
    11:00 +19°C° 0 mm 1 mps 768 mmHg 48%
    12:00 +19°C° 0 mm 1 mps 768 mmHg 47%
    13:00 +20°C° 0 mm 1 mps 767 mmHg 45%
    14:00 +19°C° 0 mm 1 mps 767 mmHg 52%
    15:00 +16°C° 0 mm 1 mps 767 mmHg 59%
    16:00 +15°C° 0 mm 1 mps 767 mmHg 66%
    17:00 +14°C° 0 mm 1 mps 768 mmHg 68%
    18:00 +14°C° 0 mm 1 mps 768 mmHg 70%
    19:00 +13°C° 0 mm 1 mps 768 mmHg 72%
    20:00 +13°C° 0 mm 1 mps 768 mmHg 72%
    21:00 +12°C° 0 mm 1 mps 768 mmHg 72%
    22:00 +12°C° 0 mm 1 mps 769 mmHg 71%
    23:00 +12°C° 0 mm 1 mps 769 mmHg 71%

    26 November, Sunday

    Time Temperature Precipitation Wind Pressure Humidity
    00:00 +12°C° 0 mm 1 mps 769 mmHg 71%
    01:00 +12°C° 0 mm 1 mps 769 mmHg 71%
    02:00 +11°C° 0 mm 1 mps 769 mmHg 70%
    03:00 +11°C° 0 mm 1 mps 768 mmHg 70%
    04:00 +11°C° 0 mm 1 mps 768 mmHg 69%
    05:00 +11°C° 0 mm 1 mps 768 mmHg 68%
    06:00 +11°C° 0 mm 1 mps 769 mmHg 68%
    07:00 +10°C° 0 mm 2 mps 769 mmHg 67%
    08:00 +13°C° 0 mm 2 mps 769 mmHg 61%
    09:00 +15°C° 0 mm 1 mps 769 mmHg 55%
    10:00 +18°C° 0 mm 1 mps 769 mmHg 49%
    11:00 +18°C° 0 mm 1 mps 768 mmHg 48%
    12:00 +18°C° 0 mm 2 mps 768 mmHg 47%
    13:00 +18°C° 0 mm 2 mps 767 mmHg 46%
    14:00 +17°C° 0 mm 2 mps 767 mmHg 53%
    15:00 +16°C° 0 mm 2 mps 767 mmHg 60%
    16:00 +15°C° 0 mm 2 mps 767 mmHg 66%
    17:00 +14°C° 0 mm 2 mps 767 mmHg 70%
    18:00 +13°C° 0 mm 2 mps 767 mmHg 73%
    19:00 +12°C° 0 mm 2 mps 767 mmHg 76%
    20:00 +12°C° 0 mm 2 mps 767 mmHg 77%
    21:00 +11°C° 0 mm 3 mps 767 mmHg 78%
    22:00 +11°C° 0 mm 3 mps 767 mmHg 79%
    23:00 +10°C° 0 mm 3 mps 767 mmHg 80%
    Show more